GW4545 Weather Reports


time (UTC)temp
F
wind
direction
speed
knots
gust
knots
rain 1hr
in
rain 24hr
in
rain mn
in
humidity
%
barometer
mb
20260831203059 81 88 1.7 7.0 0.00 0.00 0.00 36 1010.2
20260831201552 80 161 0.9 7.8 0.00 0.00 0.00 36 1010.4
20260831200056 80 142 3.5 7.0 0.00 0.00 0.00 37 1010.7
20260831194635 80 92 1.7 6.1 0.00 0.00 0.00 37 1010.7
20260831193057 79 284 1.7 5.2 0.00 0.00 0.00 39 1010.8
20260831191553 78 122 2.6 5.2 0.00 0.00 0.00 39 1011.0
20260831190110 77 0 0.9 4.3 0.00 0.00 0.00 43 1011.2
20260831184602 77 86 2.6 7.0 0.00 0.00 0.00 43 1011.5
20260831183052 75 234 1.7 5.2 0.00 0.00 0.00 46 1011.3
20260831181554 75 0 1.7 6.1 0.00 0.00 0.00 49 1011.7
20260831174634 72 30 2.6 7.0 0.00 0.00 0.00 54 1011.8
20260831173105 71 285 1.7 7.8 0.00 0.00 0.00 57 1012.0
20260831171559 71 267 1.7 5.2 0.00 0.00 0.00 57 1011.9
20260831170059 68 11 2.6 7.8 0.00 0.00 0.00 59 1011.9
20260831164557 67 313 2.6 9.6 0.00 0.00 0.00 61 1012.1
20260831163107 66 292 3.5 12.2 0.00 0.00 0.00 62 1012.2
20260831161603 66 325 2.6 8.7 0.00 0.00 0.00 64 1012.4
20260831160055 65 5 1.7 7.0 0.00 0.00 0.00 65 1012.5
20260831154624 64 319 1.7 7.8 0.00 0.00 0.00 65 1012.5
20260831153118 63 290 1.7 5.2 0.00 0.00 0.00 68 1012.5
20260831151554 62 343 1.7 7.0 0.00 0.00 0.00 70 1012.7
20260831150059 60 308 0.0 3.5 0.00 0.00 0.00 71 1012.6
20260831144600 59 295 0.9 5.2 0.00 0.00 0.00 75 1012.8
20260831143055 57 262 1.7 4.3 0.00 0.00 0.00 77 1012.8
20260831141555 55 0 0.0 3.5 0.00 0.00 0.00 81 1012.7
20260831140051 54 279 0.9 2.6 0.00 0.00 0.00 82 1012.6
20260831134608 53 252 0.9 2.6 0.00 0.00 0.00 84 1012.7
20260831133102 51 254 1.7 3.5 0.00 0.00 0.00 87 1012.7
20260831131558 52 193 0.9 2.6 0.00 0.00 0.00 85 1012.8
20260831130109 51 204 0.9 2.6 0.00 0.00 0.00 86 1012.8
20260831124552 52 212 0.9 2.6 0.00 0.00 0.00 85 1013.0
20260831123103 52 169 0.0 1.7 0.00 0.00 0.00 84 1013.2
20260831121608 54 0 0.0 1.7 0.00 0.00 0.00 81 1013.3
20260831120104 55 19 0.0 2.6 0.00 0.00 0.00 80 1013.4
20260831114604 54 231 0.9 2.6 0.00 0.00 0.00 80 1013.6
20260831113108 56 0 0.0 1.7 0.00 0.00 0.00 76 1013.6
20260831111550 58 0 0.0 3.5 0.00 0.00 0.00 75 1013.7
20260831110053 58 0 0.0 3.5 0.00 0.00 0.00 74 1013.6
20260831104600 58 281 0.9 2.6 0.00 0.00 0.00 75 1013.6
20260831103052 58 288 0.9 2.6 0.00 0.00 0.00 73 1013.8
20260831101603 59 284 0.0 2.6 0.00 0.00 0.00 73 1013.9
20260831100057 59 5 0.0 3.5 0.00 0.00 0.00 72 1014.2
20260831094603 59 300 1.7 3.5 0.00 0.00 0.00 72 1014.3
20260831093139 60 279 0.9 2.6 0.00 0.00 0.00 71 1014.4
20260831091552 60 0 0.0 3.5 0.00 0.00 0.00 70 1014.4
20260831090055 60 270 1.7 7.0 0.00 0.00 0.00 71 1014.6
20260831084630 61 311 0.9 5.2 0.00 0.00 0.00 71 1014.8
20260831083106 61 292 0.9 7.0 0.00 0.00 0.00 71 1014.9
20260831081549 61 288 1.7 3.5 0.00 0.00 0.00 72 1014.9
20260831080123 61 315 0.9 3.5 0.00 0.00 0.00 72 1015.2
20260831074551 61 290 2.6 6.1 0.00 0.00 0.00 72 1015.3
20260831073100 61 298 1.7 5.2 0.00 0.00 0.00 72 1015.3
20260831071601 60 286 0.9 3.5 0.00 0.00 0.00 73 1015.4
20260831070054 60 285 1.7 5.2 0.00 0.00 0.00 74 1015.5
20260831064601 60 305 0.9 4.3 0.00 0.00 0.00 74 1015.8
20260831063108 60 264 0.9 3.5 0.00 0.00 0.00 74 1015.9
20260831061553 60 283 1.7 6.1 0.00 0.00 0.00 73 1016.2
20260831060056 60 304 0.9 5.2 0.00 0.00 0.00 73 1016.3
20260831054555 60 22 0.0 2.6 0.00 0.00 0.00 73 1016.4
20260831053100 61 360 0.0 3.5 0.00 0.00 0.00 72 1016.6
20260831051559 61 0 0.9 2.6 0.00 0.00 0.00 72 1016.9
20260831050108 61 0 0.0 3.5 0.00 0.00 0.00 72 1017.0
20260831044549 61 325 0.9 2.6 0.00 0.00 0.00 71 1017.1
20260831043052 61 0 0.0 5.2 0.00 0.00 0.00 71 1017.2
20260831041556 62 0 0.9 3.5 0.00 0.00 0.00 69 1017.3
20260831040055 62 292 0.9 3.5 0.00 0.00 0.00 69 1017.2
20260831034559 63 310 1.7 6.1 0.00 0.00 0.00 68 1017.2
20260831033101 63 282 0.9 3.5 0.00 0.00 0.00 67 1017.1
20260831031555 64 274 0.9 3.5 0.00 0.00 0.00 66 1017.2
20260831030054 65 329 2.6 8.7 0.00 0.00 0.00 65 1017.3
20260831024602 65 341 2.6 8.7 0.00 0.00 0.00 63 1017.4
20260831023054 67 17 1.7 7.8 0.00 0.00 0.00 62 1017.5
20260831021554 68 11 4.3 10.4 0.00 0.00 0.00 59 1017.3
20260831014556 70 352 4.3 9.6 0.00 0.00 0.00 56 1017.6
20260831013102 70 84 2.6 12.2 0.00 0.00 0.00 57 1017.8
20260831011604 71 80 4.3 9.6 0.00 0.00 0.00 54 1017.8
20260831010106 72 360 5.2 13.0 0.00 0.00 0.00 53 1017.9
20260831004555 72 36 4.3 12.2 0.00 0.00 0.00 51 1018.1
20260831003051 73 91 3.5 11.3 0.00 0.00 0.00 50 1018.1
20260831001608 74 64 5.2 11.3 0.00 0.00 0.00 49 1018.2
20260831000056 73 55 5.2 13.0 0.00 0.00 0.00 49 1018.2
20260830234611 74 70 5.2 9.6 0.00 0.00 0.00 48 1018.3
20260830233130 75 352 4.3 8.7 0.00 0.00 0.00 48 1018.4
20260830231559 74 59 5.2 11.3 0.00 0.00 0.00 49 1018.6
20260830230104 74 59 4.3 8.7 0.00 0.00 0.00 47 1018.9
20260830224554 74 360 3.5 9.6 0.00 0.00 0.00 47 1019.1
20260830223103 74 22 4.3 10.4 0.00 0.00 0.00 48 1019.2
20260830221556 74 59 2.6 8.7 0.00 0.00 0.00 48 1019.4
20260830220055 74 13 4.3 10.4 0.00 0.00 0.00 47 1019.6
20260830214559 74 342 2.6 12.2 0.00 0.00 0.00 47 1019.8
20260830213138 73 69 6.1 11.3 0.00 0.00 0.00 47 1019.9
20260830211555 73 5 2.6 7.8 0.00 0.00 0.00 49 1020.1
20260830204557 72 59 0.9 8.7 0.00 0.00 0.00 49 1020.4